Location: Mentone
(34.5413°N, 85.5351°W)
Time: 20:02:24
(UTC-05:00)

ATLAS 5 CENTAUR R/B - Visible Passes

Search period start: 27 August 2014 00:00
Search period end: 06 September 2014 00:00
Orbit: 718 x 945 km, 63.4° (Epoch: 25 August)

Date Brightness Start Highest point End Pass type
(mag) Time Alt. Az. Time Alt. Az. Time Alt. Az.
27 Aug 4.4 02:29:13 18° N 02:29:13 18° N 02:30:52 10° N visible
28 Aug 4.6 02:11:11 16° N 02:11:11 16° N 02:12:23 10° NNE visible
29 Aug 4.8 01:53:08 14° N 01:53:08 14° N 01:53:54 10° NNE visible
30 Aug 5.0 01:35:03 12° NNE 01:35:03 12° NNE 01:35:25 10° NNE visible
